Theta_e
316 314 313 314 314 314 314 314 314 314 313 311 311 309 307 306 306 306 305 304 305 306 307 306 308 308 308 309 307 308 308 309 316 318 320 321 316 314 314 314 314 312 312 312 313 314 314 314 314 314 316 318 321 323 322 321 323 324 326 323 319 321 321 320 320 319 320 318 316 316 316 316 316 315 315 315 314 316 316 316 317 318 318 318 324 331 331 330
316 314 313 313 314 313 313 313 313 313 312 311 311 310 308 306 306 305 305 305 304 306 307 307 308 308 308 308 307 309 308 310 318 322 322 319 314 314 314 314 315 312 312 315 316 315 314 315 314 314 316 319 320 322 322 321 321 322 324 321 320 322 319 319 318 318 320 318 316 316 316 317 316 316 315 315 315 315 315 316 317 318 319 318 322 329 328 329
315 314 313 313 313 313 313 313 312 312 311 310 310 309 308 306 306 305 304 304 304 304 305 307 307 308 308 308 308 307 310 315 319 321 318 315 314 315 314 315 315 312 313 317 317 315 314 315 314 314 316 317 318 320 321 321 320 321 323 322 320 320 318 318 318 317 318 318 317 316 316 317 316 316 315 315 316 315 315 316 317 317 319 320 321 325 326 327
315 314 313 313 313 313 313 312 312 312 311 309 309 309 308 307 305 305 304 304 304 304 305 306 307 308 307 307 309 309 316 321 319 319 316 313 314 315 316 315 314 313 314 315 315 315 314 315 314 314 316 316 317 317 318 319 320 319 319 319 318 317 318 317 316 316 317 318 318 317 317 316 317 317 315 316 316 316 316 316 318 316 318 320 319 323 326 327
315 314 313 313 312 312 312 312 312 312 312 310 309 309 308 307 305 305 304 304 304 304 305 306 307 307 307 308 308 312 320 318 315 318 315 313 315 316 317 315 314 315 314 314 314 315 314 314 314 315 316 316 317 316 316 316 317 317 316 318 317 317 318 316 315 316 317 318 318 317 316 316 317 317 316 317 316 317 317 317 318 318 319 320 318 322 324 326
315 314 313 312 312 312 312 312 312 312 312 311 309 308 308 307 306 304 304 305 305 305 305 306 307 307 308 310 308 313 319 315 316 319 314 313 315 316 317 314 315 315 315 315 315 315 314 315 315 315 316 316 317 315 315 315 315 317 316 316 317 317 317 315 315 316 316 317 317 316 316 316 316 316 317 317 316 316 318 319 319 320 322 319 318 322 323 325
315 314 313 312 312 311 311 312 312 312 311 311 310 309 308 307 306 305 304 305 306 306 306 306 307 307 308 311 312 316 319 315 316 316 312 313 314 315 315 314 316 315 316 317 316 316 315 315 315 316 316 315 316 315 315 315 315 317 316 316 316 316 316 315 315 314 315 316 316 316 316 316 316 316 317 317 317 317 318 319 317 317 320 319 319 322 323 323
315 314 314 313 312 311 311 311 311 312 311 310 310 310 309 307 306 305 305 305 306 307 307 307 307 309 309 315 320 319 317 318 317 313 312 314 314 315 315 316 316 316 317 318 317 317 315 315 315 316 317 315 316 316 315 315 315 316 316 316 316 316 316 315 315 314 315 315 315 316 316 317 317 316 316 317 317 317 318 318 316 316 318 320 321 322 323 323
315 315 314 313 313 311 311 311 312 312 311 310 311 311 309 307 306 306 306 306 306 307 308 308 308 310 310 316 322 318 317 320 317 313 313 314 314 315 317 318 317 317 318 317 317 317 316 316 315 317 317 316 316 315 316 315 316 317 317 316 316 316 316 315 315 315 315 315 315 316 316 316 317 315 316 317 317 317 318 318 318 318 317 318 321 322 323 324
314 315 314 313 313 311 310 311 311 312 311 310 311 311 310 308 307 306 306 306 307 308 308 308 309 311 312 317 318 315 318 318 315 313 313 313 315 316 318 318 317 318 318 317 318 317 317 317 317 318 318 317 316 316 317 317 317 317 317 317 317 317 316 316 316 315 315 316 315 315 317 317 316 316 317 318 319 318 317 318 318 318 318 317 318 320 320 321
314 314 314 313 313 312 310 310 311 311 311 311 311 311 310 309 307 307 307 307 307 308 308 309 309 311 317 320 316 315 318 317 315 314 312 313 315 317 318 316 317 319 319 318 318 318 318 318 318 318 318 317 316 317 317 316 316 317 317 317 317 317 317 317 317 316 316 316 315 315 316 317 317 317 317 318 321 319 318 318 318 319 319 318 317 318 318 319
314 314 314 313 312 311 310 310 310 310 310 311 311 311 310 308 308 307 307 307 307 308 308 310 310 312 318 320 316 317 317 316 314 312 312 313 314 316 316 316 317 318 319 319 317 316 316 317 318 318 317 317 316 317 316 316 316 316 317 317 317 317 317 317 317 317 316 316 316 315 317 318 317 319 317 318 320 319 318 318 318 319 319 319 319 319 319 318
314 314 313 312 312 310 310 310 310 309 310 311 310 310 309 308 308 307 307 308 308 309 309 311 311 314 318 317 316 318 316 314 313 312 313 313 315 316 316 316 316 316 318 318 316 315 315 316 318 318 317 317 316 316 316 316 316 317 317 317 318 318 318 317 318 318 317 316 317 316 318 319 318 318 318 319 320 319 319 319 319 320 319 320 320 320 321 319
313 313 313 312 311 310 309 310 310 309 310 311 310 310 309 309 308 307 307 308 308 309 311 311 312 316 317 314 316 317 314 313 312 313 314 315 317 316 316 316 316 316 316 316 315 315 316 317 318 317 316 317 316 315 316 316 316 317 317 318 319 317 317 318 318 317 317 316 317 316 317 319 317 319 320 320 320 319 319 319 319 319 319 320 322 322 322 320
313 313 312 311 310 309 309 309 309 310 311 311 310 311 310 309 308 308 308 308 310 311 312 312 314 318 316 313 317 316 313 313 314 315 314 316 317 315 316 315 315 316 315 315 315 315 317 317 319 318 315 316 317 317 317 317 317 317 317 318 319 317 317 319 317 317 317 316 316 317 318 318 317 319 320 319 318 318 318 318 319 320 319 320 322 323 323 321
313 312 311 311 310 309 308 309 310 311 311 311 311 311 310 309 309 308 309 310 312 311 313 317 316 315 314 315 318 316 314 316 317 315 313 317 319 317 316 315 316 316 315 315 315 316 317 317 319 320 317 315 317 318 319 318 317 319 318 317 319 319 317 318 317 317 317 316 316 317 317 318 317 319 320 319 318 318 318 318 318 319 320 320 322 322 322 322
312 311 311 311 310 309 308 309 310 311 312 311 310 310 310 311 311 311 311 312 314 312 314 319 315 312 313 314 315 316 317 319 317 314 314 317 318 317 317 317 317 316 316 317 316 318 317 316 319 319 318 317 317 318 319 318 317 319 318 316 318 320 317 316 316 317 317 317 316 317 317 317 317 318 319 319 319 319 319 319 319 319 320 321 323 323 322 321
312 311 310 311 311 310 309 309 310 311 311 311 310 312 312 313 313 315 314 313 314 311 311 313 312 312 312 311 315 317 318 319 317 314 314 316 317 317 318 317 317 317 317 317 317 318 318 317 317 319 318 317 318 319 319 319 317 318 319 317 317 317 316 315 316 317 317 317 317 317 317 317 317 317 317 318 319 320 320 319 319 319 320 321 322 322 321 321
312 311 310 311 311 310 309 310 311 310 311 311 313 314 314 315 317 318 318 315 313 309 309 312 311 312 313 313 317 319 319 318 316 314 314 315 316 317 318 317 318 318 317 318 318 317 319 320 318 321 322 318 317 318 319 320 317 317 319 318 316 315 315 316 316 316 316 317 317 317 317 316 316 317 317 318 318 319 319 319 319 320 321 320 321 320 320 322
312 312 311 310 311 311 310 310 311 310 311 313 315 316 316 317 316 316 317 316 313 311 312 313 311 312 316 317 317 317 317 316 316 316 315 314 316 317 317 317 319 320 318 320 320 318 318 322 322 322 322 319 317 317 318 318 316 316 317 317 317 316 316 316 317 316 316 317 317 317 318 317 316 317 317 318 318 319 318 319 319 320 321 321 321 320 320 322
312 312 311 311 311 311 310 310 310 311 313 315 317 319 317 314 313 313 314 313 312 314 315 314 313 315 317 317 315 316 316 316 316 318 316 315 316 316 316 317 319 319 319 320 320 317 317 322 324 321 319 318 317 317 317 317 316 316 317 317 318 318 318 317 318 316 315 318 318 318 318 317 316 317 318 318 318 319 318 318 318 318 319 320 321 321 322 321
312 312 312 312 311 311 310 310 311 311 313 316 317 321 317 313 313 314 314 311 311 314 314 314 313 315 317 316 315 317 318 315 317 319 316 315 317 317 317 317 318 318 319 320 320 319 320 321 321 318 318 318 318 317 317 316 317 317 318 318 318 321 320 318 318 317 315 318 319 319 318 317 317 317 317 318 318 318 318 318 319 320 319 320 320 321 323 323
312 312 312 312 312 311 311 311 311 311 313 315 317 319 317 313 311 312 316 314 313 316 315 313 313 314 315 316 316 317 318 315 317 319 316 315 317 317 316 315 316 318 319 319 320 320 320 319 318 318 319 318 317 316 316 316 317 320 320 318 319 323 321 317 317 318 316 317 320 320 320 318 317 318 317 317 318 317 318 319 319 321 321 320 321 322 325 325
313 312 312 313 312 312 312 312 311 311 313 315 316 318 316 314 311 312 319 317 313 317 315 314 315 315 315 315 315 317 317 315 318 318 315 316 317 316 316 315 314 317 319 317 318 320 319 318 318 319 318 318 318 317 318 317 317 322 324 321 320 321 320 318 319 320 318 319 322 322 323 323 321 321 321 320 321 319 319 320 320 321 322 323 324 326 328 328
314 313 312 313 313 313 312 312 312 313 315 315 316 317 315 314 311 311 318 315 313 317 315 314 315 315 315 315 315 316 315 315 318 317 314 316 317 315 317 316 314 315 317 318 317 317 318 318 320 321 319 319 320 318 321 321 317 320 324 323 321 319 320 323 324 324 321 320 323 323 325 328 324 324 326 325 325 324 322 322 322 322 322 324 326 327 329 330
314 313 313 313 313 312 311 313 314 314 315 316 316 315 314 313 311 312 316 313 312 315 313 312 313 312 314 316 316 316 314 315 317 317 315 316 316 315 316 316 316 316 316 318 318 317 318 317 320 324 323 322 322 320 323 325 318 316 324 327 324 321 322 324 324 325 323 321 322 323 324 325 320 320 323 323 323 323 323 325 325 324 324 326 328 327 328 329
315 314 313 314 313 312 312 315 315 314 314 315 315 314 312 311 311 313 314 313 313 314 313 312 310 311 314 315 315 313 312 315 317 316 316 316 315 315 316 316 316 316 316 320 321 320 320 320 322 324 325 326 324 321 324 324 319 320 326 329 325 322 323 324 324 324 325 324 324 325 324 324 322 319 319 319 319 320 321 323 325 325 325 327 328 330 331 331
316 315 314 314 313 313 315 316 314 314 313 314 314 312 311 310 310 312 312 314 316 315 314 312 310 312 315 315 314 311 312 315 317 317 315 315 316 315 315 316 316 316 317 320 321 321 322 323 326 325 325 326 323 325 328 323 322 325 326 326 326 325 325 325 323 324 327 326 326 328 326 324 323 320 320 320 318 320 322 322 323 325 326 328 329 333 335 334
317 316 315 315 314 314 316 316 315 315 314 313 312 311 311 311 312 313 312 313 317 314 313 313 311 314 316 314 314 312 312 314 316 317 315 314 315 315 315 315 315 316 317 318 321 324 322 319 322 325 324 324 323 326 331 327 324 325 325 326 327 327 325 324 323 324 327 325 325 330 328 318 315 317 320 320 319 322 322 322 324 325 328 334 336 336 336 334
318 317 316 315 315 314 315 316 316 316 315 313 311 311 312 314 313 313 312 313 316 315 311 311 312 316 315 313 314 312 313 315 316 315 315 315 315 314 315 315 316 319 320 320 322 322 317 314 317 322 321 320 320 321 325 327 325 324 325 327 326 324 325 326 325 324 327 326 324 330 328 315 312 319 321 321 324 326 323 321 323 322 328 338 340 337 335 333
318 318 318 316 315 315 315 316 316 316 315 313 312 312 314 316 314 311 311 312 315 316 312 311 313 316 314 314 315 312 313 315 315 315 316 316 316 315 316 316 318 323 322 323 323 320 319 318 319 320 318 318 320 320 321 322 324 325 325 325 326 326 326 326 324 325 328 326 323 327 327 317 314 318 320 322 326 326 322 320 320 320 327 337 339 335 331 330
317 318 318 318 317 316 316 317 317 317 314 312 314 315 314 314 313 312 312 310 312 316 315 314 315 315 314 315 315 313 314 316 316 316 317 318 317 316 316 317 319 322 321 321 322 323 324 323 321 320 318 318 321 323 321 320 323 326 325 325 326 325 326 327 328 330 329 324 323 326 326 320 316 317 321 323 322 322 322 321 321 322 325 332 338 336 331 329
315 317 317 318 318 316 316 317 318 317 314 312 315 318 316 313 312 313 312 310 314 318 317 316 316 315 315 315 316 315 315 317 316 316 318 318 318 317 316 317 317 317 318 319 322 324 323 323 323 320 318 318 321 323 321 320 322 324 325 327 327 323 324 326 327 330 330 325 323 325 327 325 319 319 322 321 320 321 323 324 325 326 326 328 335 340 336 330
313 315 316 317 317 317 317 317 317 317 314 314 317 317 316 313 311 312 312 312 317 320 319 318 317 315 315 315 316 315 316 318 317 317 319 319 319 318 317 317 317 316 316 317 321 323 320 323 324 320 319 320 320 321 321 321 320 321 322 324 326 322 319 321 322 326 329 328 323 321 326 328 320 318 324 324 323 323 323 324 325 327 331 330 330 338 341 334
313 313 314 316 316 317 317 316 317 316 314 315 317 315 313 312 311 311 312 315 319 320 318 318 317 316 316 319 319 315 317 320 318 317 320 319 317 318 317 317 316 316 316 315 319 321 318 320 323 321 319 318 319 322 321 320 319 320 321 322 326 324 317 319 322 322 325 326 325 324 326 327 321 319 322 322 323 324 324 325 324 325 329 328 328 333 336 335
313 312 313 314 315 316 317 316 316 314 313 314 314 313 312 311 312 312 312 317 320 319 319 318 318 317 316 320 321 317 318 322 320 318 321 320 318 318 318 317 316 316 316 314 318 321 320 322 325 322 319 317 320 324 323 322 320 320 323 323 326 326 319 320 323 322 321 321 321 322 321 320 317 317 320 319 318 320 323 325 325 326 327 327 329 331 330 332
313 313 313 313 314 316 316 316 314 312 313 314 312 312 313 312 315 316 315 319 319 317 319 319 319 319 317 319 321 319 319 321 321 320 321 321 320 319 318 319 317 316 316 313 315 321 323 324 323 322 321 320 320 323 325 326 324 324 326 324 323 326 323 321 323 323 323 321 320 319 317 316 315 317 320 319 318 318 321 324 324 325 328 327 329 331 327 329
312 313 313 313 313 314 316 316 313 311 313 313 311 313 314 313 317 320 319 319 319 317 317 318 318 319 319 319 319 319 318 319 320 320 320 319 320 320 318 318 319 316 316 315 316 320 321 321 321 320 320 319 318 319 322 324 323 323 325 323 322 326 326 323 321 321 321 320 320 320 317 316 317 318 319 318 320 322 322 323 323 323 325 326 326 329 325 325
312 313 313 313 313 313 316 315 312 311 313 313 312 314 315 313 316 320 319 318 319 319 316 316 318 319 319 318 318 319 317 317 319 319 319 318 318 320 318 318 320 318 316 316 316 319 319 318 321 319 317 319 318 319 322 322 321 320 321 322 324 325 325 325 323 320 321 319 318 319 318 316 318 320 319 318 321 323 321 322 323 322 323 324 325 326 327 328
311 312 313 314 313 313 315 314 312 313 313 312 312 313 314 314 315 317 318 318 320 320 318 317 318 318 318 319 318 318 317 317 320 318 317 317 317 320 318 317 320 320 318 317 317 320 319 316 320 319 317 320 320 319 319 320 320 320 321 323 325 323 323 326 325 321 322 321 319 320 318 316 318 321 321 321 321 321 322 323 324 324 324 325 327 328 333 337
310 311 313 315 314 314 314 313 314 314 312 310 311 311 311 313 315 316 317 317 317 317 318 320 321 319 319 319 318 319 317 317 319 318 316 316 317 319 319 318 320 321 321 320 318 319 318 315 320 322 319 321 321 319 319 320 320 318 318 320 321 322 322 323 324 322 323 324 322 322 319 317 320 321 320 321 323 323 324 326 326 327 327 328 331 333 338 341
309 310 312 315 315 314 314 314 315 313 310 310 311 310 310 313 315 317 317 316 314 315 317 318 320 321 321 320 318 320 319 317 318 319 317 317 316 318 320 319 319 320 320 320 319 317 316 316 320 323 322 321 320 320 323 324 323 321 320 318 318 320 321 321 323 325 326 325 322 323 321 317 319 324 323 323 326 325 327 328 327 326 325 328 335 338 338 337
308 310 312 315 314 313 314 316 315 312 310 311 312 311 312 314 315 317 318 317 315 316 318 318 319 321 322 322 321 321 319 317 318 319 318 318 317 320 323 318 319 321 318 318 319 317 316 318 319 319 321 322 320 319 320 321 322 323 324 323 321 320 319 321 324 327 328 326 323 324 322 319 321 326 326 328 329 327 328 328 325 324 325 329 336 341 339 336
306 308 311 314 314 313 314 316 316 314 311 311 312 312 312 314 315 317 318 317 316 318 317 317 319 321 322 321 321 322 320 318 319 319 319 320 320 324 327 324 321 319 319 321 321 318 318 320 321 319 320 323 323 322 321 320 320 322 324 324 324 322 322 323 323 324 325 326 326 324 321 319 323 326 325 326 327 324 325 326 325 325 329 333 335 337 339 338
305 306 309 312 313 313 313 314 314 315 314 312 312 312 312 313 313 315 317 317 316 317 317 318 319 321 321 320 320 323 323 322 323 321 321 323 322 322 326 329 325 319 322 327 323 318 319 320 319 318 319 320 322 324 324 323 322 321 323 324 324 324 325 324 322 322 323 323 323 323 320 318 320 323 323 323 324 323 324 325 325 325 329 333 334 336 338 337
305 305 307 309 311 312 313 313 313 314 315 314 313 313 312 313 313 313 315 316 317 316 318 320 319 318 319 319 320 322 322 322 324 324 324 325 324 320 320 325 326 322 324 326 323 322 325 322 317 318 318 316 319 325 325 323 322 321 322 322 322 323 325 324 323 323 321 320 321 321 320 318 318 318 320 321 323 324 323 323 324 325 328 331 332 334 333 331
305 305 306 308 310 310 311 312 313 313 314 314 314 314 313 313 313 313 313 315 316 316 316 318 317 316 317 317 317 319 320 319 320 321 322 323 322 319 318 321 322 320 319 320 322 324 325 322 319 318 318 316 319 326 325 322 321 320 320 320 320 322 324 324 324 323 320 321 320 319 319 320 318 316 317 319 321 322 321 321 322 323 325 328 329 329 328 327
304 304 304 307 310 309 309 310 311 312 313 314 314 314 314 313 314 315 314 314 315 315 316 317 316 315 316 316 316 318 318 318 319 319 319 320 320 319 319 319 319 317 317 318 322 324 323 321 321 320 320 319 320 324 324 322 321 320 319 319 319 321 323 323 323 321 321 322 320 319 320 321 318 316 317 320 321 319 318 318 319 320 321 324 325 325 327 329
303 303 303 306 308 309 309 309 310 311 312 313 313 314 314 314 314 315 315 314 315 315 315 316 316 315 315 315 316 317 316 317 318 317 317 318 319 319 319 319 317 315 317 318 320 322 321 320 320 320 320 321 321 321 322 322 323 322 321 321 319 320 321 321 321 321 321 321 320 320 321 320 318 317 317 318 320 319 317 317 318 319 318 320 322 324 328 329
302 302 303 305 306 307 308 308 309 310 311 311 312 313 313 314 314 315 314 314 315 315 315 315 315 315 315 315 316 316 315 316 318 318 317 317 317 317 318 320 318 316 316 317 318 319 319 319 320 319 319 320 320 319 320 321 322 322 323 323 322 322 321 320 320 320 320 321 320 320 321 320 318 317 317 317 318 318 318 318 317 318 318 320 322 324 326 327
302 302 303 305 305 305 306 307 308 309 309 310 311 312 312 313 314 314 315 314 314 315 315 315 315 315 315 315 316 316 315 315 316 317 317 317 318 318 318 319 321 318 316 317 319 319 317 318 320 319 319 319 319 319 320 320 320 321 321 322 321 321 321 320 321 321 320 321 320 321 321 320 317 317 318 318 317 318 319 318 317 318 319 319 321 321 322 323
301 301 302 303 304 304 305 306 307 309 309 309 310 311 311 313 313 314 315 315 314 314 314 314 315 315 315 316 316 316 316 316 316 316 318 319 319 319 319 319 320 320 318 317 318 318 316 317 319 319 320 320 319 319 319 319 320 321 320 319 319 319 319 320 321 322 321 320 321 321 320 318 318 318 318 318 318 318 318 318 318 318 318 319 321 321 321 321
Wind_Speed
10 8 8 7 7 6 5 5 4 4 6 6 7 7 7 7 6 6 6 6 6 6 7 7 7 6 6 5 5 4 5 4 4 6 6 3 2 5 7 6 4 4 4 4 4 3 4 6 4 3 4 3 0 1 1 1 1 1 1 1 4 2 1 1 2 3 4 6 5 6 6 5 6 3 2 2 1 2 3 3 4 6 7 9 12 15 16 16
10 8 8 8 7 6 5 5 5 5 6 7 7 7 7 7 6 6 6 6 6 7 7 7 7 7 6 6 5 5 6 5 7 8 5 5 5 6 8 6 4 4 5 4 4 5 5 3 5 4 4 2 1 1 1 0 0 1 1 3 3 1 2 4 6 5 3 5 6 6 6 3 6 6 3 2 4 5 4 4 5 5 6 9 12 14 15 16
10 9 8 8 7 6 5 5 5 6 6 7 7 7 7 8 7 7 7 7 7 7 8 8 8 8 7 6 5 6 5 4 6 5 5 5 6 8 9 7 4 5 5 4 3 5 6 3 3 5 3 2 1 1 1 0 1 0 0 1 1 2 3 7 8 6 6 3 6 6 2 0 4 5 4 3 5 6 7 6 6 7 6 8 10 13 15 15
12 11 8 7 7 6 5 5 5 5 6 7 7 7 8 8 8 7 7 7 7 8 8 8 8 8 7 6 6 4 3 3 3 2 5 5 6 9 9 6 5 5 4 4 2 4 6 4 2 4 3 2 2 1 2 1 1 1 0 1 2 3 4 6 7 6 6 5 4 7 2 0 3 3 3 4 3 4 6 7 8 9 10 11 10 13 16 15
13 12 10 8 7 6 5 5 5 5 5 6 7 7 7 7 8 8 7 8 8 8 8 9 8 8 7 5 5 2 1 1 1 2 3 5 6 9 8 6 5 4 4 3 2 4 5 5 4 3 3 1 4 2 3 3 1 0 1 3 3 4 3 4 5 6 5 5 5 6 2 1 3 2 3 4 3 3 2 2 3 3 7 13 13 13 14 13
14 12 10 9 8 7 6 5 5 5 5 6 7 6 6 6 7 7 7 8 8 8 9 9 8 8 6 4 3 1 1 1 1 1 2 5 7 8 7 5 4 4 4 2 3 4 4 5 4 3 3 2 5 3 3 4 2 0 1 5 5 4 4 3 4 3 5 4 4 2 0 2 3 1 4 6 6 3 4 6 6 7 8 16 16 13 12 10
15 13 11 9 8 7 7 6 5 5 5 7 7 6 6 6 7 7 7 8 8 8 9 9 8 7 5 3 1 2 3 0 2 2 4 6 7 6 5 4 4 4 3 3 5 5 4 5 4 3 4 2 5 4 2 3 3 1 1 4 3 5 6 4 3 2 4 5 3 3 4 2 2 2 0 3 8 6 3 8 7 8 12 16 13 10 11 11
16 15 14 12 9 8 7 6 6 5 5 6 6 5 5 5 6 6 7 7 8 8 9 9 8 6 6 4 1 2 3 1 2 3 6 6 6 6 5 3 3 3 1 4 4 3 3 4 4 4 2 0 3 4 2 3 3 2 1 5 2 3 6 5 4 3 3 3 3 3 3 3 2 2 2 4 8 7 3 7 7 8 10 10 10 10 10 10
17 16 15 14 12 10 8 7 6 5 5 5 5 5 5 5 5 5 6 7 8 8 8 9 7 6 6 4 1 3 2 4 4 5 6 5 5 6 5 3 2 0 2 2 3 4 2 3 3 1 1 1 2 4 1 1 1 2 3 5 4 5 5 4 4 4 2 1 2 1 3 3 3 4 3 8 9 8 6 6 7 7 7 7 8 9 9 9
16 16 15 14 14 14 11 8 7 6 5 5 4 4 4 5 5 5 6 7 8 8 8 8 7 6 6 3 2 2 2 7 6 5 6 5 6 5 3 2 1 3 3 1 3 4 3 3 3 3 2 1 2 2 2 1 1 1 4 5 5 6 4 2 3 5 2 2 3 1 4 2 4 3 4 5 4 6 8 7 7 7 7 7 7 8 10 10
16 16 16 15 14 14 12 9 7 6 5 4 5 5 5 5 5 5 6 7 8 8 8 7 7 7 4 2 3 2 3 6 6 7 7 5 5 4 2 2 2 4 5 3 5 6 5 7 7 3 2 1 3 3 3 0 2 1 3 4 5 5 5 3 3 5 3 2 3 2 4 3 4 1 8 5 0 3 7 7 7 7 6 7 7 7 8 10
17 16 16 15 15 14 12 9 8 7 6 4 5 5 5 6 5 5 6 7 8 8 8 6 7 6 2 2 3 2 5 6 7 9 7 5 6 5 4 2 3 4 7 3 5 5 4 6 7 3 2 1 3 3 1 2 2 1 1 1 5 5 4 6 5 5 4 2 3 2 3 6 4 8 13 7 5 4 5 6 6 7 6 6 7 7 7 9
17 16 15 15 15 14 12 9 8 7 6 5 5 5 6 6 5 6 6 6 8 8 7 6 6 5 1 1 1 3 6 8 9 9 7 7 7 5 5 4 3 3 5 4 4 3 3 5 6 2 2 3 1 2 1 2 0 1 3 1 3 3 3 7 5 5 4 2 3 3 1 6 6 13 13 5 8 6 5 6 6 6 6 7 7 7 7 9
17 16 14 14 13 12 11 10 8 7 6 5 5 5 6 6 5 6 6 7 7 7 6 5 5 4 1 0 2 2 6 11 9 7 8 8 6 6 6 5 5 3 3 5 5 3 4 4 4 1 2 3 2 2 2 2 0 1 2 0 1 2 1 4 4 6 4 1 3 4 1 7 7 6 4 4 6 6 5 6 6 6 6 7 7 7 7 8
17 15 13 13 12 11 11 10 8 7 6 4 4 5 5 5 5 6 7 7 6 5 5 4 5 3 0 1 2 4 8 10 8 7 9 8 5 6 6 6 7 6 6 7 7 6 5 4 2 1 2 2 1 2 2 3 2 1 2 1 3 2 1 2 2 5 4 1 3 5 2 7 6 1 4 4 4 4 5 6 6 7 7 7 7 7 7 7
16 14 13 13 12 11 11 10 9 7 6 5 5 5 4 3 3 5 6 6 5 6 5 3 5 3 2 1 3 4 5 5 7 8 10 9 5 6 8 7 8 6 5 6 6 4 3 3 2 0 1 0 1 2 2 2 2 2 2 2 2 4 3 2 1 1 2 1 4 5 3 4 2 2 4 4 5 5 6 6 7 7 7 7 6 7 7 7
14 13 14 13 11 11 11 10 10 8 7 7 6 4 4 4 5 6 7 8 6 6 4 1 4 4 1 2 4 4 5 5 7 9 10 9 7 8 9 6 5 4 4 3 2 1 1 1 1 1 0 1 3 3 2 1 3 3 4 3 2 2 3 2 1 2 2 1 3 5 5 5 6 5 4 4 6 7 7 8 8 7 7 7 7 7 7 7
13 12 13 15 12 10 10 10 9 8 8 7 6 7 8 8 9 8 8 10 8 6 1 3 2 3 1 3 4 4 8 10 9 9 10 9 8 9 5 2 4 5 4 2 0 0 0 1 1 0 1 2 4 3 4 3 2 2 4 3 3 2 4 3 1 3 4 2 3 5 6 8 9 9 8 8 8 8 8 9 8 8 8 7 7 8 7 8
13 12 13 15 13 10 9 9 8 7 7 8 10 12 12 10 9 7 5 6 5 3 1 3 4 2 1 4 4 7 9 12 10 8 9 7 7 6 3 2 4 3 3 2 1 1 1 2 1 1 3 4 4 4 4 1 3 2 1 2 2 2 2 2 2 3 3 2 4 6 7 8 9 9 9 9 8 8 9 8 8 8 8 7 8 8 8 9
15 13 13 14 14 11 10 9 8 8 10 11 11 10 8 6 4 3 3 4 3 0 2 3 6 2 4 5 6 9 11 9 5 4 7 8 6 5 4 3 2 1 3 3 2 1 1 1 2 3 5 5 7 8 4 2 5 4 3 2 3 3 2 1 3 1 1 1 5 6 7 10 9 9 9 8 8 9 9 9 9 8 7 8 9 9 9 9
15 14 13 13 13 12 10 9 8 11 13 11 7 3 2 3 3 2 4 4 7 0 5 2 2 3 4 8 10 10 7 3 1 3 8 9 6 5 4 4 3 1 4 2 4 1 2 1 4 6 6 1 3 6 3 3 3 3 3 2 3 3 5 1 4 2 2 2 4 5 7 11 11 9 8 8 9 10 11 11 11 10 9 8 9 11 11 9
14 14 14 13 12 11 10 8 9 12 12 9 5 3 1 2 1 2 3 2 6 3 4 1 2 3 5 7 9 6 1 2 3 4 8 8 5 4 4 4 4 4 4 4 4 1 1 4 6 5 2 5 5 4 5 3 2 2 1 1 3 3 2 2 4 3 2 2 4 6 6 10 12 11 11 11 11 11 11 11 11 10 10 10 9 9 9 9
14 14 14 13 11 10 9 8 8 11 10 6 4 2 2 2 2 3 1 1 2 3 3 3 3 4 5 2 5 5 2 5 5 5 9 9 4 3 4 6 5 4 5 5 4 3 3 4 5 2 5 5 4 4 4 2 1 2 2 1 3 2 1 1 1 3 4 4 3 6 6 8 11 12 13 13 12 11 11 11 11 10 11 12 10 8 8 8
14 14 13 12 11 9 9 7 7 8 8 6 5 2 1 1 2 2 0 1 2 1 1 2 2 3 4 2 6 7 2 3 4 6 12 11 5 2 4 6 7 4 5 7 6 6 3 1 1 4 4 3 4 3 3 3 2 4 5 4 4 2 1 2 1 1 3 2 1 4 6 6 8 9 10 9 8 9 9 10 11 11 11 11 10 8 8 8
15 14 13 12 11 10 10 8 5 5 5 5 6 6 5 2 3 2 1 1 2 0 2 1 1 3 6 6 7 5 0 1 1 6 15 11 4 3 3 3 5 5 6 8 7 6 3 0 0 5 3 2 5 4 5 5 3 4 5 6 5 3 3 2 5 5 4 3 1 1 4 5 3 5 8 7 5 6 6 8 11 11 10 9 9 9 8 8
17 16 14 13 11 12 10 5 5 5 4 2 4 6 8 5 2 2 1 1 2 2 1 4 3 6 9 7 6 3 2 1 3 6 14 7 1 2 2 2 1 2 6 5 3 3 1 1 1 6 5 4 4 3 5 6 3 3 4 2 0 2 4 4 5 3 2 4 3 2 1 5 4 4 9 8 7 8 6 8 10 9 8 8 8 8 7 7
19 17 17 15 13 13 7 3 8 8 3 2 5 6 6 5 1 1 2 1 3 4 4 2 1 7 9 8 9 4 1 3 3 4 6 3 2 2 1 4 3 1 3 2 1 1 3 2 1 5 4 4 4 3 4 8 4 2 4 4 4 4 2 2 3 1 2 5 4 5 5 5 6 6 11 12 11 10 8 9 10 8 8 8 8 8 8 7
21 19 18 17 15 12 6 6 11 7 2 1 2 6 5 4 2 1 2 1 2 4 4 1 1 5 7 8 11 5 2 5 4 1 1 1 1 3 0 4 4 5 3 3 4 2 2 5 5 6 4 4 4 1 3 8 4 1 3 2 5 5 3 2 2 2 2 5 5 4 6 3 7 5 8 10 10 8 9 10 9 8 8 7 5 5 6 5
21 21 20 17 16 11 6 7 9 5 4 1 0 6 7 4 2 1 1 3 2 3 2 3 3 4 6 7 8 5 4 2 1 0 1 2 1 2 1 3 2 6 6 5 4 1 2 3 3 5 4 4 3 4 2 4 3 3 2 5 6 4 4 3 1 2 3 4 4 5 6 2 8 5 6 7 7 7 9 9 8 8 7 5 5 6 7 6
20 21 21 19 17 12 5 4 7 6 5 3 1 7 9 3 1 2 3 3 2 2 2 2 3 6 10 9 6 6 5 2 2 3 2 1 1 2 1 1 2 2 3 1 1 2 1 1 1 1 1 3 5 4 5 4 5 5 4 5 5 3 4 3 1 3 3 4 4 8 10 3 5 4 5 6 6 7 7 5 6 7 4 6 6 7 7 6
18 19 22 21 19 16 8 3 9 9 4 4 7 10 7 2 0 4 5 1 1 2 3 1 4 9 14 13 7 6 5 3 4 7 4 3 2 1 1 1 2 3 2 1 1 2 2 1 1 0 1 3 5 4 5 5 3 3 3 4 3 2 3 3 2 3 1 6 4 6 10 7 5 5 1 3 5 7 7 5 6 5 2 5 6 6 7 6
13 16 21 23 21 20 12 3 8 10 4 8 12 7 4 2 1 5 4 2 0 4 5 5 7 10 13 11 7 7 7 5 6 8 6 6 5 5 6 5 5 3 1 4 2 1 1 3 3 1 2 2 4 4 4 5 2 1 4 5 4 1 1 1 1 1 3 6 4 1 5 5 9 5 3 5 3 5 6 4 4 2 1 2 6 6 6 6
10 13 19 24 23 22 17 8 6 8 8 11 9 2 2 4 5 7 7 3 1 2 5 7 9 10 11 9 6 7 6 4 7 7 5 7 6 7 8 8 9 6 3 5 4 1 1 2 4 4 2 3 5 5 3 0 2 4 5 6 5 3 2 3 3 2 4 5 3 2 3 4 7 3 6 10 10 9 7 4 4 3 4 5 5 7 6 6
7 11 16 24 25 23 22 16 8 9 12 10 5 2 3 6 6 9 11 6 1 2 3 7 10 11 11 8 6 9 5 3 8 7 5 6 5 6 7 8 10 7 1 3 4 6 5 4 5 8 3 5 7 6 6 6 5 6 5 4 5 5 4 4 3 3 4 3 2 0 1 3 3 2 4 3 5 5 6 7 6 5 7 6 4 6 6 6
4 7 11 18 23 23 24 21 13 13 14 7 3 5 7 8 6 9 10 4 2 2 4 7 9 10 9 4 3 8 3 2 9 8 5 8 6 7 8 8 11 9 4 4 3 5 7 6 5 6 5 12 12 7 6 7 3 4 2 2 4 4 3 2 2 3 2 2 3 2 4 5 3 6 7 4 7 5 5 7 7 7 8 4 4 6 6 6
4 4 6 12 18 23 26 22 16 18 15 7 4 7 8 9 5 5 5 3 4 6 8 7 6 6 7 3 2 5 0 2 8 7 4 7 7 8 8 7 12 12 9 7 3 3 5 3 1 3 3 8 8 5 4 4 3 3 3 4 4 1 3 2 2 1 4 2 5 3 6 6 3 8 9 10 12 9 5 5 7 8 8 6 7 8 6 6
4 4 6 9 15 21 26 24 20 22 14 6 7 8 7 7 2 0 1 2 7 11 9 6 4 5 7 4 3 6 2 2 6 6 4 5 5 8 10 7 10 15 13 9 4 2 5 1 3 1 2 1 2 1 1 2 2 4 4 5 1 4 2 2 0 2 1 5 5 3 8 8 4 6 4 4 9 9 6 7 8 8 8 8 8 8 9 6
1 3 5 10 15 17 22 25 22 17 8 4 9 10 6 5 2 3 3 1 7 11 7 5 5 5 7 6 5 8 7 4 6 6 5 5 4 8 13 8 8 15 16 11 5 2 4 3 3 2 1 2 3 1 1 2 3 4 2 2 3 1 2 2 2 2 3 5 5 4 8 7 6 7 5 4 7 8 8 9 9 9 9 8 8 9 11 6
2 2 3 9 16 15 20 27 20 10 3 3 8 8 5 6 4 3 5 4 2 6 7 7 6 5 7 7 6 7 8 7 8 6 5 5 4 7 12 9 7 13 15 13 7 2 3 4 3 3 3 1 2 1 5 2 2 2 2 2 2 2 3 4 3 3 3 4 5 6 7 6 6 6 7 10 10 10 10 8 8 9 9 8 8 9 10 7
1 2 1 7 15 18 24 25 14 6 3 2 4 3 2 4 4 3 5 6 3 1 4 6 7 6 7 8 7 8 8 8 9 7 5 6 5 5 10 10 6 8 11 12 9 2 2 4 4 2 4 0 2 5 9 9 6 3 2 2 3 2 2 1 1 2 4 3 3 4 8 8 5 4 8 10 9 10 10 8 8 9 8 8 8 8 8 7
2 2 1 9 19 23 23 14 5 5 4 2 2 2 2 3 3 5 3 6 4 2 2 2 4 5 7 8 8 8 7 7 8 7 5 7 7 5 7 11 9 8 8 8 8 5 3 4 5 2 1 4 5 5 6 8 9 9 7 8 9 6 4 2 3 3 2 2 3 2 8 11 4 3 4 6 5 7 9 9 8 8 8 8 8 8 7 6
3 2 1 12 25 26 16 4 1 3 2 2 4 3 4 4 2 6 3 3 2 1 2 2 3 3 4 7 9 8 8 7 8 8 6 9 11 7 6 11 12 11 10 7 10 10 5 3 4 4 4 5 3 2 2 2 2 4 4 6 7 6 5 5 5 4 2 3 4 1 6 12 4 4 3 5 6 5 6 6 7 6 4 3 5 4 4 3
3 3 2 12 27 24 10 4 3 3 1 3 3 3 5 5 3 4 4 3 2 1 0 1 1 2 1 1 6 9 9 7 9 11 8 9 10 5 3 9 11 11 9 6 7 7 4 2 3 3 1 1 1 1 2 4 4 0 3 2 3 6 7 6 4 4 3 5 5 3 7 11 1 4 2 4 6 4 4 5 5 1 4 2 3 4 4 4
3 2 1 9 24 20 7 5 6 4 4 3 3 4 4 3 4 6 6 6 5 2 2 3 1 2 2 3 2 6 9 7 9 11 9 8 6 2 3 3 8 10 7 3 4 6 4 4 5 3 2 1 0 1 1 2 2 1 3 3 5 8 8 3 1 1 2 7 9 6 9 11 2 3 1 3 4 3 1 1 1 1 5 4 4 5 6 7
2 3 1 5 16 15 6 4 4 5 6 6 5 7 6 3 5 8 7 5 5 4 4 4 0 3 1 3 4 2 3 2 4 8 7 5 2 3 6 5 2 7 4 1 3 6 5 5 6 7 7 7 6 4 4 3 2 2 5 8 9 9 9 6 3 3 6 10 10 7 9 13 7 2 4 3 3 4 4 4 3 4 5 5 4 5 6 6
2 3 2 3 6 7 5 3 4 5 6 8 6 7 10 7 5 7 8 5 5 5 3 1 2 2 1 2 4 3 3 3 2 3 4 3 1 2 3 6 4 3 3 5 4 4 3 3 7 10 10 11 8 5 6 8 7 6 10 12 12 12 12 8 5 7 10 9 8 11 12 17 17 8 1 3 2 4 6 5 4 5 6 6 6 7 6 5
2 3 3 3 2 4 5 5 6 6 5 8 5 5 11 11 5 6 8 7 6 7 4 2 4 4 4 5 3 2 2 2 3 1 1 2 2 0 2 4 5 4 3 3 3 3 3 3 8 11 13 13 7 2 7 12 11 13 15 14 14 13 13 11 10 12 12 8 11 15 13 15 24 17 9 8 8 7 7 7 6 6 6 7 7 7 7 7
3 3 3 1 1 3 5 6 8 8 8 8 5 4 10 12 9 7 7 7 6 8 6 4 7 10 9 10 8 4 3 3 2 1 0 1 2 1 2 3 3 3 2 2 3 2 5 4 7 9 11 13 8 2 4 7 8 11 14 15 16 16 16 16 17 19 16 11 12 15 13 16 22 17 8 7 8 10 9 7 6 7 7 6 7 8 9 8
3 3 3 2 1 1 1 2 7 9 10 9 6 6 8 12 13 10 7 6 5 8 9 7 11 15 14 11 9 6 5 5 5 5 3 1 1 2 0 1 2 4 3 3 2 1 3 4 5 4 5 9 10 6 4 5 4 4 7 9 11 14 18 19 21 22 19 14 14 15 16 17 18 16 11 8 8 10 10 8 9 11 12 10 9 9 9 9
3 2 2 1 2 2 1 2 5 5 7 7 6 7 8 11 14 11 8 9 7 8 11 13 13 14 15 14 11 10 11 11 11 10 6 5 3 2 2 3 1 3 3 3 1 2 1 3 2 1 2 8 11 8 5 5 5 4 6 6 6 10 16 19 19 16 13 14 16 17 18 18 16 13 13 13 11 10 12 14 13 13 13 10 7 8 9 9
7 3 2 1 3 4 3 2 3 2 3 4 5 7 8 11 13 11 8 11 12 10 12 17 17 11 11 14 14 14 14 13 14 14 10 8 7 5 4 3 4 3 1 2 1 1 2 1 1 3 2 9 11 9 7 5 4 5 7 9 12 14 12 11 11 10 12 15 15 14 13 15 14 11 11 15 15 11 12 16 15 12 11 9 8 11 11 9
10 5 3 1 2 4 4 3 4 4 4 4 5 7 8 8 9 9 7 7 12 13 13 17 16 9 9 15 18 18 17 14 15 13 7 6 7 7 5 5 6 7 5 3 2 2 4 3 1 3 4 9 12 9 5 3 4 6 10 15 19 18 13 9 8 11 15 13 10 10 11 12 13 12 11 15 16 14 12 13 14 14 12 9 8 11 11 10
Wind_Direction
234 214 196 189 183 186 182 181 183 183 189 189 188 191 193 194 197 204 207 208 211 214 215 215 211 220 227 235 254 264 269 257 244 241 223 215 176 167 180 175 168 170 172 167 174 217 232 227 210 200 199 196 62 106 239 300 344 289 172 226 246 231 188 194 94 93 138 136 146 163 176 159 140 163 127 132 215 130 147 154 117 80 77 99 120 133 136 143
225 209 198 191 185 186 185 185 187 190 193 193 194 193 193 195 199 205 209 209 211 214 216 217 216 221 225 236 249 263 267 251 254 251 219 209 202 191 189 182 177 174 177 177 208 241 247 215 163 194 222 185 146 176 237 228 183 261 210 225 254 46 14 1 55 56 50 121 145 158 193 192 137 154 137 152 191 175 180 186 160 133 108 116 130 141 146 150
216 211 198 192 193 191 189 189 191 192 192 198 201 198 197 198 201 204 209 210 210 212 215 218 219 222 227 235 247 260 272 263 262 243 187 199 206 199 192 191 192 181 189 201 250 282 295 317 161 203 230 192 189 156 178 191 163 238 285 219 302 48 54 24 52 63 22 59 135 139 174 201 124 137 142 199 203 181 192 197 178 178 172 157 152 152 155 160
214 224 216 201 202 198 196 195 192 195 194 200 204 205 204 200 203 205 206 207 210 211 213 218 219 223 227 234 247 259 296 274 256 155 168 192 196 192 187 190 192 184 195 201 259 298 294 293 232 224 246 197 140 133 174 166 115 87 47 126 339 350 54 39 44 50 14 7 97 112 82 152 125 106 150 197 219 205 208 205 190 194 188 170 163 161 162 167
220 233 228 210 209 207 209 206 198 200 203 206 207 211 211 206 207 206 205 205 208 210 211 216 218 223 226 236 245 255 2 248 168 82 165 178 176 181 182 180 176 179 181 177 243 262 255 252 239 233 262 191 139 163 168 134 86 186 128 95 29 3 53 58 48 28 354 1 73 110 122 150 105 98 185 206 231 215 182 163 155 176 178 161 158 158 163 171
225 236 228 211 212 215 218 216 209 209 211 213 213 216 217 215 213 209 209 205 205 209 210 213 215 219 224 235 238 209 244 223 92 78 151 154 161 168 176 172 163 170 164 179 250 234 240 246 222 206 245 198 164 171 134 121 100 290 117 85 40 32 74 67 63 13 342 18 72 109 343 57 84 221 204 208 232 219 98 87 78 60 106 140 148 153 164 178
226 237 233 221 218 219 223 224 219 219 219 215 213 215 217 218 218 215 211 207 208 208 208 212 211 216 217 207 185 199 229 334 59 134 139 139 149 152 158 163 166 161 164 230 240 211 215 225 206 219 242 214 173 153 120 141 140 230 152 94 46 56 82 67 81 53 8 32 38 5 345 3 229 264 47 216 237 238 115 99 96 88 108 131 143 159 173 183
225 234 235 235 235 224 223 231 228 226 228 219 210 208 210 212 217 218 214 210 212 210 210 210 205 210 197 171 153 227 216 116 88 140 135 132 137 136 130 122 139 142 195 263 259 238 227 220 223 235 225 288 135 130 156 170 167 247 128 113 106 80 92 93 101 98 63 49 19 13 323 283 273 351 353 254 245 245 180 118 119 113 120 141 155 168 179 184
226 231 233 239 246 240 234 232 230 235 234 217 206 207 206 207 215 217 215 212 212 212 212 208 203 204 189 175 227 260 202 132 138 150 134 125 127 122 105 84 96 299 270 260 295 301 276 224 237 276 79 25 103 119 166 163 178 288 104 121 135 109 102 114 119 113 114 105 56 28 257 255 25 15 277 241 235 230 203 150 139 134 144 168 171 176 182 186
225 227 228 236 249 253 248 229 223 237 234 211 206 209 202 205 214 214 214 213 213 211 210 209 202 191 178 184 224 252 150 128 137 151 137 124 119 103 80 115 117 318 288 129 7 331 333 348 347 6 27 27 90 88 21 67 276 320 102 107 113 121 123 173 153 130 144 118 129 240 273 236 80 36 262 250 248 213 191 173 153 151 171 189 190 189 189 191
223 224 228 238 250 255 249 228 223 232 225 216 209 205 201 205 211 213 214 211 212 210 208 206 198 186 169 214 239 225 152 144 145 146 139 125 114 95 82 136 103 4 343 68 49 14 9 358 350 351 8 78 105 71 43 143 270 354 108 103 119 138 131 173 177 146 161 122 171 234 305 286 103 154 243 229 274 164 171 182 173 176 192 200 203 200 197 200
221 222 231 242 250 254 245 226 228 231 218 219 212 205 206 202 205 211 210 209 210 208 202 198 192 181 160 259 253 155 145 158 153 144 137 114 99 92 100 96 82 29 353 37 75 30 36 11 350 357 3 349 123 104 88 226 265 75 193 188 154 166 155 184 180 151 170 165 178 123 328 269 197 226 246 209 152 151 169 195 194 191 200 207 208 202 203 206
218 222 232 242 249 248 234 219 228 226 213 224 215 204 204 200 206 210 206 207 208 205 198 195 184 162 136 259 170 123 142 153 149 138 128 107 92 87 99 91 80 54 5 52 93 46 63 28 355 24 37 351 99 144 214 206 347 141 212 272 154 187 197 188 166 133 148 140 152 112 345 269 227 232 242 182 151 159 176 212 215 210 209 207 205 203 207 203
215 222 230 239 241 228 214 213 224 219 213 227 207 197 203 197 202 202 200 202 200 198 191 186 169 142 121 115 103 128 148 144 139 137 131 108 94 91 87 88 86 77 62 85 94 77 75 37 1 71 62 14 97 171 204 147 211 181 147 62 214 230 205 169 143 140 153 202 166 124 210 270 278 251 219 140 152 158 188 224 227 228 223 208 200 204 212 206
212 219 224 230 222 207 206 208 214 213 210 215 201 207 204 194 197 191 193 192 182 178 175 176 162 141 221 188 108 128 138 135 138 157 146 124 120 113 96 98 94 86 90 98 94 76 55 19 354 104 71 357 110 155 172 159 209 196 129 244 213 209 223 154 155 156 152 261 186 147 211 261 271 193 111 112 131 156 209 236 237 236 231 212 199 201 212 217
208 212 216 218 207 200 204 202 202 203 207 213 209 205 191 181 175 168 172 162 150 155 147 156 174 186 282 159 128 134 145 147 157 171 157 140 139 124 117 109 94 85 85 94 91 66 30 19 6 343 56 283 205 207 201 167 211 192 183 239 192 181 190 166 276 267 130 127 187 193 248 274 253 176 152 156 162 178 209 233 238 238 237 222 205 201 210 217
203 207 209 206 201 199 196 194 193 194 204 208 192 164 149 134 127 131 135 133 126 135 130 52 168 181 302 112 131 165 171 157 159 170 163 147 131 129 137 128 108 116 113 104 88 40 343 45 68 281 31 220 228 214 185 204 235 205 187 238 250 188 185 172 300 284 169 172 220 213 229 252 262 261 249 216 192 192 206 225 234 237 239 232 215 210 210 209
199 200 200 197 194 193 190 188 190 197 200 186 154 130 122 116 114 107 115 126 108 96 78 329 167 176 246 175 143 126 138 141 150 164 164 151 137 145 159 153 149 158 156 165 237 174 196 62 63 258 167 217 242 190 169 211 237 202 178 209 269 233 215 227 208 187 178 174 237 227 234 244 253 261 260 244 218 209 220 228 231 235 235 235 229 222 216 211
196 189 188 189 188 187 186 185 190 193 172 144 127 118 109 104 104 100 122 145 124 98 210 195 181 179 134 150 115 89 117 139 145 154 165 157 145 158 182 182 174 185 180 172 220 223 118 101 95 272 195 197 222 202 204 247 28 16 102 118 305 302 233 186 110 183 189 179 233 235 250 255 251 256 262 258 243 234 241 243 238 234 229 232 236 235 229 223
195 185 179 178 180 183 181 180 185 171 145 132 128 119 112 124 121 119 165 209 225 5 23 172 177 143 97 107 102 104 111 127 137 145 167 164 153 165 191 192 146 341 238 171 158 215 54 149 195 216 218 207 208 208 209 40 38 9 12 28 324 331 307 97 104 210 294 298 248 244 262 271 264 256 258 262 264 261 258 257 254 244 234 231 233 238 238 236
189 184 178 174 172 173 175 177 177 165 148 141 152 160 144 155 162 157 149 231 255 295 49 67 109 71 99 118 134 137 114 104 142 145 167 174 169 173 185 184 148 201 232 135 99 83 72 209 223 215 218 204 195 190 143 70 41 20 8 345 316 288 268 276 112 172 51 51 270 277 276 274 271 262 256 251 253 255 251 251 253 249 245 239 234 235 236 238
180 182 176 172 168 163 164 170 172 167 156 148 186 237 352 46 75 121 124 225 244 169 99 70 76 80 94 123 158 178 153 137 142 149 173 181 188 187 164 173 191 190 178 112 92 114 144 224 235 218 150 72 59 72 76 48 18 65 93 312 292 270 283 13 93 146 113 104 263 282 279 272 276 272 261 248 243 247 245 244 247 247 248 246 239 237 233 233
170 170 169 167 162 158 161 165 168 170 166 166 200 227 357 4 62 85 101 235 201 161 162 203 193 143 112 124 193 201 191 155 151 169 180 179 186 207 165 173 208 182 156 159 158 174 182 224 229 153 95 95 81 67 84 81 22 181 179 210 250 218 108 311 211 173 187 197 261 295 288 271 271 271 267 256 242 245 247 246 249 246 245 247 244 241 233 226
166 158 162 162 155 157 159 154 159 171 184 207 224 233 324 331 69 93 298 299 156 146 208 189 215 180 144 137 183 190 224 160 146 161 176 180 168 184 190 185 204 194 176 188 194 207 197 205 199 102 96 134 128 129 156 163 212 217 203 201 229 239 186 218 321 3 236 224 338 312 298 273 248 244 263 270 244 237 241 240 247 247 244 249 253 249 237 229
171 161 158 158 156 155 149 147 165 180 190 226 242 235 242 276 41 83 131 276 188 101 348 170 182 203 153 123 159 180 15 77 40 147 171 187 168 151 200 202 206 206 196 192 203 226 210 254 126 112 116 171 145 172 185 175 207 229 217 209 223 282 336 351 7 7 338 327 325 346 319 296 260 223 250 273 246 227 225 225 236 245 244 243 248 248 239 235
171 164 159 157 155 148 142 148 177 174 167 229 249 233 235 240 45 68 112 309 234 164 140 166 158 181 166 141 154 133 77 181 3 126 160 190 231 128 193 193 143 218 204 187 202 235 158 327 16 124 140 150 155 219 195 173 196 243 258 269 237 350 18 11 1 8 338 293 249 149 170 280 295 257 247 252 248 244 237 231 236 241 238 229 231 236 228 222
173 166 163 165 159 148 136 127 149 152 149 219 238 231 233 224 211 40 100 338 259 165 144 167 190 179 168 159 163 142 121 163 80 103 150 191 211 59 118 174 120 223 236 109 136 267 119 133 99 124 129 133 163 234 188 170 168 233 286 352 57 62 52 39 20 335 263 304 274 172 160 264 279 245 228 228 241 252 251 248 248 243 233 226 226 219 203 195
177 171 169 171 165 146 114 122 144 151 152 116 209 214 208 190 195 33 117 202 225 145 141 170 149 151 150 164 170 149 99 142 130 107 63 104 166 46 110 196 167 185 207 125 173 292 95 158 165 152 153 159 168 250 187 171 158 243 284 19 77 75 56 69 46 309 311 343 306 183 149 256 277 241 202 206 219 231 238 243 246 250 244 231 216 180 155 149
185 177 178 179 169 150 111 132 154 171 197 193 244 189 171 163 188 58 130 206 164 125 140 146 140 138 141 167 182 157 108 102 106 166 87 96 95 34 190 236 224 190 196 187 185 346 31 180 183 159 169 178 127 27 3 143 139 210 181 72 68 68 50 52 25 352 17 330 269 182 161 249 283 257 167 182 203 206 225 233 233 243 237 194 141 124 117 108
195 185 185 183 177 178 159 162 186 178 184 221 198 152 145 140 169 133 182 214 155 114 99 111 148 154 153 161 184 177 144 75 57 122 140 150 94 341 260 300 312 193 175 184 102 82 115 145 169 149 151 148 113 56 18 68 121 158 140 79 62 60 49 37 326 59 50 283 235 174 180 197 289 273 152 175 200 189 199 212 227 240 209 147 126 126 130 127
199 197 194 186 185 190 180 196 210 190 170 161 139 138 139 97 332 181 186 209 33 125 123 143 151 152 166 167 167 183 157 112 140 145 149 164 133 315 242 151 11 41 51 330 359 125 137 87 111 348 342 131 108 70 22 30 90 121 124 112 84 39 31 30 343 60 118 261 260 179 179 178 239 260 178 191 181 177 187 182 209 241 166 138 138 135 138 142
192 202 205 197 195 194 185 196 209 195 164 136 139 141 148 133 229 224 197 87 129 181 157 174 169 162 178 173 156 174 161 136 168 165 152 164 170 184 197 188 153 127 236 222 208 75 178 194 158 70 316 192 128 93 35 3 359 133 148 133 113 82 17 19 245 158 210 248 284 158 153 204 242 248 254 268 244 205 213 198 204 257 330 168 157 153 152 147
189 197 206 206 202 199 199 207 204 189 159 142 145 116 120 171 202 211 201 165 172 191 145 157 164 161 172 175 158 164 160 149 172 173 154 162 180 195 209 209 182 185 214 179 169 146 233 235 154 127 331 235 177 151 138 252 212 183 165 145 145 159 186 228 217 217 237 249 287 44 77 259 271 280 241 253 255 230 215 225 228 216 242 240 188 169 168 164
190 192 201 207 206 205 209 211 208 188 163 147 145 115 154 202 203 198 207 200 111 30 113 142 148 153 170 182 163 155 161 170 166 165 156 161 185 203 212 223 207 205 189 158 178 177 203 270 185 172 175 175 191 200 170 153 172 196 185 158 172 172 182 206 190 208 245 279 293 326 112 218 246 274 225 247 287 242 207 222 229 222 232 234 213 193 177 179
173 190 201 207 206 209 212 211 208 185 161 137 143 164 184 205 202 204 208 186 121 75 100 129 136 151 175 190 164 164 164 162 168 171 171 176 197 200 193 208 207 202 182 192 207 170 201 247 181 162 162 163 180 210 170 129 147 215 199 187 224 212 178 177 194 186 156 337 292 226 234 223 211 264 259 282 305 273 217 228 230 242 256 260 261 242 206 192
164 186 207 212 210 210 209 209 201 174 150 112 144 183 202 205 199 205 189 148 158 141 121 133 139 155 176 180 205 197 192 83 167 176 190 196 211 207 197 199 197 198 192 190 200 151 182 256 48 94 129 163 179 207 175 145 170 189 171 198 220 159 133 166 269 49 97 263 265 202 250 277 306 281 255 238 256 250 216 237 233 234 251 257 262 262 246 210
180 200 211 221 220 213 208 206 189 166 146 118 171 198 216 213 213 171 181 139 147 143 136 154 171 176 176 173 200 192 162 100 166 177 186 193 219 213 210 212 192 197 203 196 211 177 154 205 313 74 129 219 284 300 99 51 107 133 174 200 131 39 54 138 173 359 148 247 263 199 244 274 280 276 270 215 241 243 219 225 231 232 238 243 252 264 263 225
210 231 230 231 224 213 206 198 178 160 145 139 186 207 220 217 237 31 354 325 142 149 166 176 171 186 181 177 192 182 168 160 174 187 181 177 224 207 201 210 193 198 206 198 209 228 157 189 296 344 3 304 337 47 147 355 60 121 176 204 107 100 246 145 158 231 213 238 268 256 261 265 227 240 281 257 232 224 219 216 219 227 227 232 244 256 265 249
324 264 251 227 216 208 197 187 168 148 140 152 189 209 216 219 241 17 3 328 181 169 189 186 172 191 194 182 172 168 175 177 172 182 186 181 219 205 192 198 199 198 199 193 201 215 151 195 248 318 323 340 40 202 196 198 42 50 353 341 97 150 190 170 175 190 179 217 255 276 284 268 218 209 225 233 224 205 210 216 213 218 218 222 233 243 259 256
266 268 264 194 198 194 182 175 162 152 161 155 191 215 253 245 263 324 7 6 339 220 199 201 188 185 198 192 168 162 184 191 176 186 199 184 203 219 190 186 193 194 187 188 197 160 110 201 211 322 335 51 175 217 199 179 168 177 214 214 189 142 125 140 253 190 164 194 234 275 281 262 225 199 205 213 217 199 191 197 208 217 213 212 224 232 241 242
196 262 260 172 180 175 167 167 168 168 158 146 186 198 246 254 271 270 324 30 19 1 29 268 220 191 191 191 179 164 174 193 185 191 207 191 204 232 186 175 180 173 163 179 196 182 168 195 175 143 258 211 211 221 203 187 185 190 193 197 198 181 148 170 249 226 156 185 204 217 275 267 229 168 183 172 174 180 177 180 192 206 209 213 232 232 221 222
210 232 155 168 173 164 155 183 200 132 146 188 169 158 190 209 253 252 254 36 24 330 4 324 280 236 196 191 195 174 162 189 194 190 208 207 207 217 187 176 173 164 158 177 200 197 180 158 161 176 194 200 211 195 158 144 170 208 218 208 194 178 169 180 210 214 162 225 236 188 272 270 232 138 135 116 118 142 155 149 147 173 210 227 239 221 176 187
220 219 119 169 176 164 154 219 181 123 212 190 156 155 175 190 210 223 222 202 192 198 266 297 339 325 336 191 207 187 167 184 199 194 204 211 210 224 203 180 167 160 166 180 196 195 174 150 173 190 184 101 48 71 76 62 68 300 261 215 165 190 197 187 192 192 164 203 217 193 250 264 294 95 116 94 87 88 85 87 97 77 315 302 201 182 157 175
229 248 39 178 183 174 174 214 189 182 194 157 160 189 186 208 213 206 208 200 193 187 220 241 3 25 356 1 297 204 183 190 205 204 201 199 206 320 351 196 169 163 170 179 182 178 178 181 167 162 199 246 326 328 337 23 99 195 232 204 203 206 193 166 175 206 207 212 201 192 242 254 270 71 101 109 109 123 123 103 119 256 273 245 198 198 205 194
235 235 292 191 190 190 205 228 205 206 186 163 180 191 187 211 218 212 211 191 180 189 217 233 30 53 16 352 354 302 218 203 201 208 204 190 198 2 357 338 174 165 166 100 159 173 179 186 173 175 202 215 218 215 202 179 154 202 215 204 210 203 182 173 179 196 229 229 211 206 245 254 253 78 57 62 138 196 238 246 240 244 246 240 231 237 232 205
234 218 195 176 196 211 232 248 237 234 198 178 187 189 189 202 208 203 208 199 174 177 184 170 118 77 16 330 344 334 313 360 51 204 210 163 101 356 339 348 20 104 97 65 101 144 147 202 198 196 209 215 218 216 180 154 150 198 213 206 206 204 195 186 172 199 222 232 233 228 237 259 262 245 228 304 247 223 248 251 252 260 258 251 249 254 255 237
241 235 198 168 189 223 237 241 230 236 217 191 183 177 191 205 207 178 194 205 183 177 191 187 178 195 203 215 259 304 274 315 26 25 259 112 102 5 347 14 37 63 72 52 44 98 123 216 216 210 225 230 225 195 164 161 172 198 208 206 204 202 198 197 206 218 216 216 242 238 225 250 262 253 231 247 259 255 251 248 250 252 247 242 244 252 255 252
228 247 231 178 150 209 225 228 215 225 231 213 205 200 196 202 202 182 187 204 194 182 191 204 202 207 208 205 210 223 241 262 294 260 228 77 112 108 17 11 29 38 52 43 8 86 139 217 229 215 236 247 246 234 178 182 190 199 205 208 204 200 198 203 217 225 219 212 236 245 230 236 257 265 245 225 250 265 262 257 264 271 273 271 266 260 253 252
222 252 269 324 334 235 235 167 186 214 230 225 226 226 212 206 204 197 178 180 201 196 191 204 208 205 208 202 196 209 214 212 239 240 199 156 143 119 37 306 354 9 42 85 22 51 148 218 236 214 255 264 258 251 231 240 253 232 229 225 206 200 203 208 218 224 227 232 241 253 256 251 258 271 272 256 259 276 286 289 287 287 286 281 271 262 251 246
210 230 251 288 270 265 350 104 155 191 219 225 233 229 226 223 214 205 183 176 189 192 192 211 215 201 201 201 195 210 211 199 220 230 197 188 209 170 193 213 118 11 27 91 30 345 161 221 233 89 303 271 265 262 254 260 273 272 282 286 256 225 215 216 223 227 233 244 246 251 261 264 262 268 279 282 277 280 288 286 281 279 279 280 277 266 252 243
230 286 325 301 245 229 233 206 165 169 201 205 224 230 231 232 222 216 207 194 195 190 189 208 215 198 193 200 199 213 214 201 213 225 207 196 205 194 198 200 151 134 123 139 120 77 147 225 39 84 230 256 257 257 255 259 273 272 270 264 253 245 233 221 219 219 223 233 242 248 255 261 265 270 277 279 276 274 274 277 279 277 274 276 278 273 265 253
228 272 298 288 262 231 225 217 193 207 221 191 196 220 231 241 237 231 230 213 203 202 197 202 208 200 194 202 205 211 213 204 212 225 210 190 207 204 196 193 169 157 163 171 143 117 145 156 124 149 201 252 253 251 249 241 253 254 242 236 236 239 245 246 235 227 225 224 229 240 243 252 267 274 269 268 272 272 268 272 278 278 275 268 260 266 267 259